This demonstration page uses our WeatherBlox Daily Observations layout. Learn more.

Left ArrowRight Arrow

47.50024, -111.30081

Hourly Observations for October 17, 2019

Temp ( °F °C ) Dew Point ( °F °C ) Humidity (%) Winds ( mph kmh ) Pressure ( in mb ) Visibility ( mi km ) Precip ( " mm )
12:53 am 00:53 Clear 56 13.3 23 -5 28 28 SSW 15 24 29.57 1001 10 16 0.00 0.00
1:53 am 01:53 Clear 50 10 24 -4.4 36 36 SSW 12 19 29.56 1001 10 16 0.00 0.00
2:53 am 02:53 Clear 55 12.8 22 -5.6 28 28 SSW 16 26 29.54 1000 10 16 0.00 0.00
3:53 am 03:53 Clear 52 11.1 22 -5.6 31 31 SSW 12 19 29.53 1000 10 16 0.00 0.00
4:53 am 04:53 Clear 48 8.9 22 -5.6 36 36 SSW 9 15 29.49 999 10 16 0.00 0.00
5:53 am 05:53 Clear 49 9.4 22 -5.6 35 35 SW 6 9 29.49 999 10 16 0.00 0.00
6:53 am 06:53 Clear 52 11.1 22 -5.6 31 31 SW 8 13 29.48 998 10 16 0.00 0.00
7:53 am 07:53 Sunny 52 11.1 23 -5 32 32 SSW 12 19 29.49 999 10 16 0.00 0.00
8:53 am 08:53 Sunny 54 12.2 23 -5 30 30 SSW 13 20 29.48 998 10 16 0.00 0.00
9:53 am 09:53 Sunny 59 15 25 -3.9 27 27 SSW 7 11 29.46 998 10 16 0.00 0.00
10:53 am 10:53 Sunny 60 15.6 25 -3.9 26 26 WSW 6 9 29.47 998 10 16 0.00 0.00
11:53 am 11:53 Sunny 63 17.2 26 -3.3 25 25 WSW 13 20 29.45 997 10 16 0.00 0.00
12:53 pm 12:53 Cloudy 60 15.6 27 -2.8 28 28 WNW 8 13 29.46 998 10 16 0.00 0.00
1:53 pm 13:53 Cloudy 59 15 28 -2.2 31 31 W 15 24 29.47 998 10 16 0.00 0.00
2:53 pm 14:53 Cloudy 61 16.1 29 -1.7 30 30 WSW 18 30 29.43 997 10 16 0.00 0.00
3:53 pm 15:53 Cloudy 57 13.9 31 -0.6 37 37 SW 14 22 29.47 998 10 16 0.00 0.00
4:53 pm 16:53 Mostly Cloudy 57 13.9 32 0 39 39 WSW 17 28 29.50 999 10 16 0.00 0.00
5:53 pm 17:53 Mostly Cloudy 55 12.8 32 0 42 42 SW 16 26 29.51 999 10 16 0.00 0.00
6:53 pm 18:53 Partly Cloudy 50 10 34 1.1 54 54 WSW 17 28 29.54 1001 10 16 0.00 0.00
7:53 pm 19:53 Clear 46 7.8 30 -1.1 54 54 SW 14 22 29.60 1002 10 16 0.00 0.00
8:53 pm 20:53 Clear 45 7.2 26 -3.3 48 48 W 14 22 29.61 1003 10 16 0.00 0.00
9:53 pm 21:53 Clear 42 5.6 29 -1.7 60 60 SW 16 26 29.60 1002 10 16 0.00 0.00
10:53 pm 22:53 Clear 42 5.6 28 -2.2 58 58 SW 15 24 29.62 1003 10 16 0.00 0.00
11:53 pm 23:53 Clear 42 5.6 25 -3.9 51 51 SW 18 30 29.60 1003 10 16 0.00 0.00

Powered by AerisWeather